Regional Weather Roundup
Issued by NWS

Home | Current Version | Previous Version | Graphics & Text | Print | Product List | Glossary On
Versions: 1 2 3 4 5 6 7 8 9 10 11 12 13 14 15 16 17 18 19 20 21 22 23 24 25 26 27 28 29 30 31 32 33 34 35 36 37 38 39 40 41 42 43 44 45 46 47 48 49 50
530
ASUS43 KTOP 281059
RWRKS

WEATHER ROUNDUP FOR KANSAS
NATIONAL WEATHER SERVICE GOODLAND KS
600 AM CDT WED SEP 28 2016

NOTE:  "FAIR" INDICATES FEW OR NO CLOUDS BELOW 12,000 FEET WITH NO
SIGNIFICANT WEATHER AND/OR OBSTRUCTIONS TO VISIBILITY.

KSZ001>006-013>018-027>032-041>047-281200-
NORTHWEST KANSAS

CITY           SKY/WX    TMP DP  RH WIND       PRES   REMARKS
GOODLAND       CLEAR     46  36  68 NW6       30.14R
HAYS           CLEAR     55  39  54 NW8       30.03R
HILL CITY      CLEAR     50  45  83 W7        30.07R
RUSSELL        CLEAR     55  48  77 N10       30.01R
$$

KSZ061>065-074>080-084>089-281200-
SOUTHWEST KANSAS

CITY           SKY/WX    TMP DP  RH WIND       PRES   REMARKS
DODGE CITY     CLEAR     55  40  56 NW8       30.06R
ELKHART          N/A     57  35  43 W8          N/A
GARDEN CITY    CLEAR     49  39  68 N9        30.07R
GREAT BEND     CLEAR     54  41  62 NW7       30.02R
LIBERAL        CLEAR     52  36  54 NW3       30.08R
$$

KSZ066>073-081>083-090>101-281200-
SOUTHEAST KANSAS

CITY           SKY/WX    TMP DP  RH WIND       PRES   REMARKS
CHANUTE        CLEAR     58  52  80 CALM      29.90R
COFFEYVILLE    CLEAR     54  51  90 CALM      29.91S
HUTCHINSON     CLEAR     53  50  89 NW7       29.97R
MEDICINE LODGE   N/A     53  48  83 N12       30.00R
NEWTON         CLEAR     57  53  86 NW7       29.96R
PARSONS        CLEAR     51  50  96 CALM      29.92S
WICHITA INTL   CLEAR     60  53  77 NW8       29.95R
WICHITA JABRA  LGT RAIN  60  54  80 NW8       29.95R
WINFIELD       CLEAR     56  51  84 W3        29.95R
$$

KSZ007>012-019>026-033>040-048>060-102>105-281200-
NORTHEAST KANSAS

CITY           SKY/WX    TMP DP  RH WIND       PRES   REMARKS
CONCORDIA      CLEAR     54  48  80 N7        30.01R
EMPORIA        CLEAR     57  54  89 NW7       29.93R
LAWRENCE       CLEAR     54  53  97 W7        29.91R
MANHATTAN      CLEAR     56  51  84 CALM      29.95R
OLATHE IND     CLEAR     58  54  86 NW9       29.91R
OLATHE EXE     CLEAR     59  53  80 N8        29.90R
SALINA         CLEAR     56  52  86 N7        29.98R
TOPEKA BILLARD CLEAR     56  52  86 W3        29.93R
TOPEKA FORBES  CLEAR     58  53  84 NW8       29.92R
$$




USA.gov is the U.S. government's official web portal to all federal, state and local government web resources and services.